DELTA 1 DEB

基本信息
目录编号:
21384
目录名称:
DELTA 1 DEB
国际标识:
1975-052DE
轨道中心:
EARTH
物体状态:
在轨
发射日期:
1975-06-12 UTC
轨道信息
数据来源: 国际轨道数据
星历时间: 2026-09-09T18:44:38+0800
半长轴: 7674.311km
偏心率: 0.0294265
轨道倾角: 99.621°
近地点辐角: 357.919°
升交点赤经: 88.163°
平近点角: 73.006°
近地点: 1070.345km
远地点: 1522.003km
周期: 111.511分钟
每日圈数: 12.913492
详细信息
发射场:
AFWTR
轨道高度:
LEO
数据来源:
AOE Integration Group
参考系:
TEME
时间系统:
UTC
历元类型:
SGP4
2D轨道图
3D轨道图
轨道高度分析图
轨道倾角分析图
轨道综合分析图
查看轨道综合分析图